Overview Statistics Trail Chart Weather Telemetry Raw packets
 

This is the latest recevied weather packets stored in our database for station/object KE5QKR. If no packets are shown the sender has not sent any weather packets the latest 10 day(s).

<< 24 25 26 27 28 29 30 >>
Time Temp. Humidity Pressure Rain* Wind** Luminosity Snow
1777809660 8.89° C 99% 1020.4 hPa 0 mm - 33 W/m² -
1777809358 8.33° C 99% 1020.5 hPa 0 mm - 30 W/m² -
1777809055 7.78° C 99% 1020.4 hPa 0 mm - 23 W/m² -
1777808752 7.78° C 99% 1020.3 hPa 0 mm - 18 W/m² -
1777808449 7.78° C 99% 1020.2 hPa 0 mm - 16 W/m² -
1777808147 7.78° C 99% 1020.3 hPa 0 mm - 13 W/m² -
1777807845 7.22° C 99% 1020.4 hPa 0 mm - 10 W/m² -
1777807543 7.22° C 99% 1020.3 hPa 0 mm - 8 W/m² -
1777807238 7.22° C 99% 1020.1 hPa 0 mm - 5 W/m² -
1777806936 7.22° C 99% 1020.3 hPa 1.78 mm - 3 W/m² -
1777806632 7.22° C 99% 1020.2 hPa 1.78 mm - 2 W/m² -
1777806327 7.22° C 99% 1020.2 hPa 0 mm - 1 W/m² -
1777806025 7.22° C 99% 1020 hPa 0 mm - 0 W/m² -
1777805721 7.22° C 99% 1019.9 hPa 0 mm - 0 W/m² -
1777805419 7.22° C 99% 1020 hPa 0 mm - 0 W/m² -
1777805117 7.22° C 99% 1020.1 hPa 0 mm - 0 W/m² -
1777804814 7.22° C 99% 1020.1 hPa 0 mm - 0 W/m² -
1777804512 7.22° C 99% 1020.1 hPa 0 mm - 0 W/m² -
1777804209 7.22° C 99% 1020 hPa 0 mm - 0 W/m² -
1777803906 7.22° C 99% 1020.2 hPa 0 mm - 0 W/m² -
1777803603 7.22° C 99% 1020.3 hPa 0 mm - 0 W/m² -
1777803299 7.22° C 99% 1019.9 hPa 0 mm - 0 W/m² -
1777802996 7.22° C 99% 1020.1 hPa 0 mm - 0 W/m² -
1777802694 7.22° C 99% 1020.1 hPa 0 mm - 0 W/m² -
1777802391 7.22° C 99% 1020.1 hPa 0 mm - 0 W/m² -

* Rain latest hour (hover to see other rain measurements)
** Current wind speed in m/s (hover to see current wind gust speed)